Вернуться в каталог

STARLINK-3160

АктивенСвязьVLEO
NORAD 49454·PAYLOAD·🇺🇸 United States

Запущен Nov 13, 2021 с Cape Canaveral Space Force Station

Loading…

Ближайшие Пролёты (ближайшие 24 часа)

TLE

СвежийSource: CelesTrak SupGP

Эпоха: Sep 15, 2026, 01:53 UTC

1 49454C 21104AY  26258.07895833 -.00018552  00000+0 -54829-3 0  2581
2 49454  53.1590  76.7162 0001199  83.6882 219.9960 15.34389768    16

Отслеживайте STARLINK-3160 в реальном времени с AllMySat

Download on the App Store